{"data":{"norad_id":54686,"intl_designator":"2022-167E","name":"DONGPO 08","alt_names":[],"object_type":"PAYLOAD","status":"ACTIVE","operator":null,"country":"PRC","launch_date":"2022-12-09","launch_site_code":"SEAL","launch_vehicle":null,"mission":null,"orbit_class":"UNKNOWN","rcs_meters":null,"size_class":null,"mass_kg":null,"dimensions":null,"purposes":[],"wikipedia_slug":null,"has_3d_model":false,"image_url":null,"decayed_at":null,"tle_current":{"epoch":"2026-09-21T23:10:42.977280Z","epoch_age_seconds":35602,"freshness":"FRESH","line1":"1 54686U 22167E   26264.96577520  .00007138  00000+0  21068-3 0  9996","line2":"2 54686  97.6940  77.2004 0007974 174.9666 185.1658 15.35284630210163","mean_motion":15.3528463,"eccentricity":0.0007974,"inclination_deg":97.694,"raan_deg":77.2004,"arg_perigee_deg":174.9666,"mean_anomaly_deg":185.1658,"bstar":0.00021068,"rev_number":21016,"period_min":93.793683064488,"perigee_km":454.62240559958,"apogee_km":465.52798640977,"semimajor_km":6838.2121960047,"source":"CELESTRAK","updated_at":"2026-09-22T09:00:25.185607Z"}}}